Подгорица, Albania

10:58 AM CET на 21 Јануари, 2019 (GMT +0100)
Podgorica | | Change Station

Elev 174 ft 42.36 °N, 19.25 °E | Updated 28 minutes ago

Умерено облачно
Умерено облачно
37 °F
Feels Like 34 °F
С
5
Ветер Променлив Ветер from ЈЈИ

Денес
High -- | Low -- °F
--% Chance of Precip.
Вчера
High -- | Low -- °F
Precip. -- инчи
Притисок 30.04 инчи
Видливост 0.1 миљи
Облаци
Лични чувство за темп. со ветерот 34 °F
Точка на kондензација 37 °F
Влажност 100%
Дожд 0.00 инчи
Височина на снег Not available.
7:05 AM 4:41 PM
Полна Месечина, 100% visible
METAR LYPG 210930Z 15004KT 110V190 0200 R18/0250N R36/0225N FG VV002 03/03 Q1017 BECMG FM1000 0800
Притисок 30.04 инчи
Видливост 0.1 миљи
Облаци
Лични чувство за темп. со ветерот 34 °F
Точка на kондензација 37 °F
Влажност 100%
Дожд 0.00 инчи
Височина на снег Not available.
7:05 AM 4:41 PM
Полна Месечина, 100% visible
METAR LYPG 210930Z 15004KT 110V190 0200 R18/0250N R36/0225N FG VV002 03/03 Q1017 BECMG FM1000 0800

Get Severe Weather Alerts

Thanks for signing up!

Be on the lookout for a verification email in your inbox.

You'll start receiving the daily forecast at 6 AM.

×

10-Day Weather Forecast

×

Almanac

Астрономијата

Jan. 21, 2019 Изгревање Заоѓање
Актуелно време
Граѓанскиот самрак
Наутички самрак
Астрономски самрак
Месечината
Должина на видливата светлина
Должина на денот
Tomorrow will be .
, % of the Moon is Illuminated

Екстреми денес

Country Highs Country Lows

Community

WunderPhotos

Category 6

Welcome to Category 6. This is the collective home for Weather Underground's featured writeups by Dr. Jeff Masters (right), Bob Henson (left), Chris Burt, and other regular contributors.

Nearby

Квалитетот на воздухот

  Квалитетот на воздухот AQ индекс Загадувач
Not available.

Височина на снег

Station Depth Висина

Earthquake Activity

Град Distance Mag. Time & Date
Minimum magnitude displayed is 2.5.

Coastal Water Temperatures

Место Температура

Stations

Nearby Weather Stations

Локација на станицата Темп. Лични чувство за темп. со ветерот Точка на kондензација Влажност Ветер Precip. Elev Ажурирани Тип